TimeCST,TemperatureF,Dew PointF,Humidity,Sea Level PressureIn,VisibilityMPH,Wind Direction,Wind SpeedMPH,Gust SpeedMPH,PrecipitationIn,Events,Conditions,WindDirDegrees,DateUTC
12:15 AM,32.0,18.5,58,30.33,10.0,SW,4.6,-,N/A,,Clear,230,2012-11-28 06:15:00
12:35 AM,31.6,18.5,58,30.33,10.0,WSW,4.6,-,N/A,,Clear,240,2012-11-28 06:35:00
12:55 AM,32.0,19.4,60,30.33,10.0,WSW,4.6,-,N/A,,Clear,240,2012-11-28 06:55:00
1:15 AM,31.6,18.9,59,30.33,10.0,SW,4.6,-,N/A,,Clear,230,2012-11-28 07:15:00
1:35 AM,31.1,19.0,61,30.33,10.0,SW,4.6,-,N/A,,Clear,230,2012-11-28 07:35:00
1:55 AM,31.3,19.2,61,30.34,10.0,WSW,5.8,-,N/A,,Clear,240,2012-11-28 07:55:00
2:15 AM,30.0,19.2,64,30.34,10.0,West,5.8,-,N/A,,Clear,260,2012-11-28 08:15:00
2:35 AM,29.8,19.0,64,30.34,10.0,West,3.5,-,N/A,,Clear,270,2012-11-28 08:35:00
2:55 AM,29.3,19.2,66,30.34,10.0,West,3.5,-,N/A,,Clear,270,2012-11-28 08:55:00
3:15 AM,30.0,19.4,65,30.34,10.0,West,4.6,-,N/A,,Clear,270,2012-11-28 09:15:00
3:35 AM,30.0,19.4,65,30.34,10.0,West,4.6,-,N/A,,Clear,260,2012-11-28 09:35:00
3:55 AM,30.2,19.4,64,30.34,10.0,West,5.8,-,N/A,,Clear,270,2012-11-28 09:55:00
4:15 AM,30.2,19.6,65,30.34,10.0,West,4.6,-,N/A,,Clear,260,2012-11-28 10:15:00
4:35 AM,31.1,19.9,63,30.35,10.0,West,4.6,-,N/A,,Clear,280,2012-11-28 10:35:00
4:55 AM,30.0,19.9,66,30.35,10.0,West,4.6,-,N/A,,Clear,260,2012-11-28 10:55:00
5:15 AM,29.8,20.1,67,30.36,10.0,West,4.6,-,N/A,,Clear,260,2012-11-28 11:15:00
5:35 AM,29.8,20.1,67,30.37,10.0,West,4.6,-,N/A,,Clear,260,2012-11-28 11:35:00
5:55 AM,29.1,20.1,69,30.37,10.0,West,3.5,-,N/A,,Clear,270,2012-11-28 11:55:00
6:15 AM,28.9,19.9,69,30.37,10.0,WSW,4.6,-,N/A,,Clear,250,2012-11-28 12:15:00
6:35 AM,28.8,20.1,70,30.38,10.0,West,3.5,-,N/A,,Clear,280,2012-11-28 12:35:00
6:55 AM,28.8,20.1,70,30.38,10.0,West,4.6,-,N/A,,Clear,270,2012-11-28 12:55:00
7:15 AM,27.7,19.9,73,30.39,10.0,Calm,Calm,-,N/A,,Clear,0,2012-11-28 13:15:00
7:35 AM,28.6,20.3,71,30.40,10.0,West,3.5,-,N/A,,Clear,280,2012-11-28 13:35:00
7:55 AM,28.4,21.2,74,30.40,10.0,WSW,3.5,-,N/A,,Clear,250,2012-11-28 13:55:00
8:15 AM,30.4,23.7,76,30.41,10.0,Calm,Calm,-,N/A,,Clear,0,2012-11-28 14:15:00
8:35 AM,32.5,23.4,69,30.42,10.0,Calm,Calm,-,N/A,,Clear,0,2012-11-28 14:35:00
8:55 AM,34.0,23.0,64,30.42,10.0,WNW,3.5,-,N/A,,Clear,300,2012-11-28 14:55:00
9:15 AM,34.9,23.2,62,30.43,10.0,Calm,Calm,-,N/A,,Clear,0,2012-11-28 15:15:00
9:35 AM,35.6,24.8,65,30.43,10.0,Calm,Calm,-,N/A,,Clear,0,2012-11-28 15:35:00
9:55 AM,37.9,24.3,58,30.44,10.0,Calm,Calm,-,N/A,,Clear,0,2012-11-28 15:55:00
10:15 AM,38.3,23.7,56,30.44,10.0,Calm,Calm,-,N/A,,Clear,0,2012-11-28 16:15:00
10:35 AM,40.6,23.4,50,30.43,10.0,Calm,Calm,-,N/A,,Clear,0,2012-11-28 16:35:00
10:55 AM,40.8,23.9,51,30.43,10.0,SSE,4.6,-,N/A,,Clear,150,2012-11-28 16:55:00
11:15 AM,41.4,24.6,51,30.42,10.0,SE,4.6,-,N/A,,Clear,130,2012-11-28 17:15:00
11:35 AM,42.6,25.3,51,30.41,10.0,SE,4.6,-,N/A,,Clear,140,2012-11-28 17:35:00
11:55 AM,43.7,25.9,50,30.41,10.0,SSE,4.6,-,N/A,,Clear,150,2012-11-28 17:55:00
12:15 PM,44.8,27.0,50,30.40,10.0,South,5.8,-,N/A,,Clear,190,2012-11-28 18:15:00
12:35 PM,44.6,26.4,49,30.39,10.0,SSW,5.8,-,N/A,,Clear,200,2012-11-28 18:35:00
12:55 PM,46.2,26.8,47,30.38,10.0,South,4.6,-,N/A,,Clear,180,2012-11-28 18:55:00
1:15 PM,46.6,27.1,47,30.38,10.0,Calm,Calm,-,N/A,,Clear,0,2012-11-28 19:15:00
1:35 PM,47.1,27.0,46,30.37,10.0,SSW,5.8,-,N/A,,Clear,210,2012-11-28 19:35:00
1:55 PM,47.3,27.0,45,30.36,10.0,SSE,5.8,-,N/A,,Clear,160,2012-11-28 19:55:00
2:15 PM,47.8,27.1,45,30.35,10.0,South,5.8,-,N/A,,Clear,170,2012-11-28 20:15:00
2:35 PM,48.4,27.7,45,30.34,10.0,South,5.8,-,N/A,,Clear,170,2012-11-28 20:35:00
2:55 PM,48.2,28.0,46,30.34,10.0,SSW,5.8,-,N/A,,Clear,200,2012-11-28 20:55:00
3:15 PM,48.0,27.3,45,30.34,10.0,SSW,4.6,-,N/A,,Clear,210,2012-11-28 21:15:00
3:35 PM,48.2,27.5,45,30.33,10.0,South,5.8,-,N/A,,Clear,190,2012-11-28 21:35:00
3:55 PM,47.5,27.9,47,30.33,10.0,SSW,3.5,-,N/A,,Clear,200,2012-11-28 21:55:00
4:15 PM,46.2,28.0,49,30.33,10.0,South,3.5,-,N/A,,Clear,180,2012-11-28 22:15:00
4:35 PM,44.8,27.9,52,30.33,10.0,SSE,4.6,-,N/A,,Clear,160,2012-11-28 22:35:00
4:55 PM,42.8,27.5,55,30.33,10.0,South,4.6,-,N/A,,Clear,180,2012-11-28 22:55:00
5:15 PM,41.2,27.5,58,30.33,10.0,SSE,5.8,-,N/A,,Clear,160,2012-11-28 23:15:00
5:35 PM,40.1,27.5,61,30.33,10.0,SSE,4.6,-,N/A,,Clear,160,2012-11-28 23:35:00
5:55 PM,40.1,27.1,60,30.33,10.0,South,5.8,-,N/A,,Clear,170,2012-11-28 23:55:00
6:15 PM,39.4,27.1,62,30.33,10.0,South,5.8,-,N/A,,Clear,170,2012-11-29 00:15:00
6:35 PM,38.5,27.1,64,30.33,10.0,South,4.6,-,N/A,,Clear,180,2012-11-29 00:35:00
6:55 PM,38.7,27.3,64,30.32,10.0,SSE,4.6,-,N/A,,Clear,160,2012-11-29 00:55:00
7:15 PM,37.4,28.4,70,30.32,10.0,SSE,4.6,-,N/A,,Clear,160,2012-11-29 01:15:00
7:35 PM,36.9,27.1,68,30.31,10.0,South,5.8,-,N/A,,Clear,170,2012-11-29 01:35:00
7:55 PM,36.5,26.6,67,30.31,10.0,South,5.8,-,N/A,,Clear,180,2012-11-29 01:55:00
8:15 PM,35.2,26.6,71,30.31,10.0,South,4.6,-,N/A,,Clear,170,2012-11-29 02:15:00
8:35 PM,36.0,27.1,70,30.31,10.0,South,4.6,-,N/A,,Clear,170,2012-11-29 02:35:00
8:55 PM,36.0,27.3,71,30.31,10.0,SSE,5.8,-,N/A,,Clear,160,2012-11-29 02:55:00
9:15 PM,34.9,27.0,73,30.30,10.0,SSE,5.8,-,N/A,,Clear,160,2012-11-29 03:15:00
9:35 PM,36.5,27.5,70,30.30,10.0,SSE,4.6,-,N/A,,Clear,150,2012-11-29 03:35:00
9:55 PM,35.6,27.3,72,30.30,10.0,SSE,3.5,-,N/A,,Clear,160,2012-11-29 03:55:00
10:15 PM,35.8,27.1,71,30.29,10.0,South,4.6,-,N/A,,Clear,170,2012-11-29 04:15:00
10:35 PM,35.2,27.0,72,30.29,10.0,SSE,4.6,-,N/A,,Clear,160,2012-11-29 04:35:00
10:55 PM,34.0,26.6,74,30.28,10.0,SSE,4.6,-,N/A,,Clear,160,2012-11-29 04:55:00
11:15 PM,34.0,26.6,74,30.28,10.0,South,5.8,-,N/A,,Clear,170,2012-11-29 05:15:00
11:35 PM,32.9,26.1,76,30.28,10.0,South,6.9,-,N/A,,Clear,170,2012-11-29 05:35:00
11:55 PM,34.3,26.6,73,30.28,10.0,SSE,4.6,-,N/A,,Clear,160,2012-11-29 05:55:00